Tracking 23448 objects as of 23-Jun-2021
HD Live streaming from Space Station
objects crossing your sky now

SL-14 R/B

Track SL-14 R/B now!
10-day predictions


NORAD ID: 12786
Int'l Code: 1981-082B
Perigee: 607.9 km
Apogee: 634.6 km
Inclination: 82.5 °
Period: 97.0 minutes
Semi major axis: 6992 km
RCS: 3.6609 m2 (large)
Launch date: August 24, 1981
Source: Commonwealth of Independent States (former USSR) (CIS)
Launch site: PLESETSK MISSILE AND SPACE COMPLEX (PKMTR)

Note: This is a ROCKET BODY
aabbcc
Your satellite tracking list
Your tracking list is empty




NASA's NSSDC Master Catalog

Two Line Element Set (TLE):
1 12786U 81082B   21173.59532242  .00000101  00000-0  90249-5 0  9990
2 12786  82.4889  25.5048 0019086  93.5353 266.8046 14.84834274152400
Source of the keplerian elements: AFSPC